GW0147 Weather Reports


time (UTC)temp
F
wind
direction
speed
knots
gust
knots
rain 1hr
in
rain 24hr
in
rain mn
in
humidity
%
barometer
mb
20260503050017 38 172 0.0 2.6 0.00 0.00 0.00 82 1016.7
20260503044502 38 175 0.0 2.6 0.00 0.00 0.00 81 1016.8
20260503043105 39 223 0.9 5.2 0.00 0.00 0.00 80 1016.9
20260503041558 39 207 0.9 2.6 0.00 0.00 0.00 80 1016.9
20260503040111 40 229 0.9 3.5 0.00 0.00 0.00 79 1017.0
20260503034555 40 224 0.9 4.3 0.00 0.00 0.00 78 1016.9
20260503033054 40 248 0.9 5.2 0.00 0.00 0.00 77 1017.0
20260503031604 40 258 1.7 4.3 0.00 0.00 0.00 79 1017.0
20260503030054 40 194 0.9 4.3 0.00 0.00 0.00 79 1017.0
20260503024553 40 195 0.9 2.6 0.00 0.00 0.00 80 1017.2
20260503023052 40 180 0.9 3.5 0.00 0.00 0.00 79 1017.3
20260503021552 40 174 0.9 3.5 0.00 0.00 0.00 78 1017.4
20260503020054 40 167 0.0 3.5 0.00 0.00 0.00 76 1017.5
20260503014607 40 194 1.7 4.3 0.00 0.00 0.00 74 1017.5
20260503013050 41 215 1.7 3.5 0.00 0.00 0.00 72 1017.5
20260503011555 41 234 0.0 2.6 0.00 0.00 0.00 71 1017.4
20260503010050 41 214 0.0 3.5 0.00 0.00 0.00 73 1017.4
20260503004549 41 250 0.0 5.2 0.00 0.00 0.00 73 1017.3
20260503003049 41 271 0.9 3.5 0.00 0.00 0.00 74 1017.2
20260503001559 41 252 3.5 7.0 0.00 0.00 0.00 73 1017.2
20260503000047 41 246 1.7 5.2 0.00 0.00 0.00 74 1017.2
20260502234551 42 263 1.7 8.7 0.00 0.00 0.00 73 1017.2
20260502233049 42 273 3.5 9.6 0.00 0.00 0.00 72 1017.2
20260502231547 42 267 2.6 8.7 0.00 0.00 0.00 72 1017.1
20260502230046 41 253 4.3 9.6 0.00 0.00 0.00 73 1017.1
20260502224545 42 236 3.5 7.0 0.00 0.00 0.00 72 1017.1
20260502223045 42 248 3.5 8.7 0.00 0.00 0.00 72 1017.1
20260502221544 42 286 3.5 10.4 0.00 0.00 0.00 73 1017.0
20260502220044 42 281 4.3 10.4 0.00 0.00 0.00 72 1017.0
20260502214543 42 247 5.2 13.0 0.00 0.00 0.00 71 1017.2
20260502213044 42 259 5.2 10.4 0.00 0.00 0.00 70 1017.0
20260502211543 43 286 2.6 7.8 0.00 0.00 0.00 69 1017.0
20260502210056 42 264 3.5 9.6 0.00 0.00 0.00 67 1017.1
20260502204549 42 205 1.7 9.6 0.00 0.00 0.00 67 1017.1
20260502203042 42 307 3.5 13.0 0.00 0.00 0.00 67 1017.2
20260502201550 43 266 5.2 13.0 0.00 0.00 0.00 64 1017.3
20260502200042 43 287 4.3 14.8 0.00 0.00 0.00 64 1017.5
20260502194540 46 227 3.5 13.9 0.00 0.00 0.00 61 1017.5
20260502193039 45 268 5.2 12.2 0.00 0.00 0.00 61 1017.7
20260502191551 45 242 5.2 12.2 0.00 0.00 0.00 61 1017.7
20260502190043 46 273 5.2 11.3 0.00 0.00 0.00 59 1017.8
20260502184548 44 286 3.5 11.3 0.00 0.00 0.00 63 1017.7
20260502183059 44 262 4.3 11.3 0.00 0.00 0.00 60 1017.7
20260502181542 44 175 3.5 11.3 0.00 0.00 0.00 63 1017.7
20260502163031 45 258 5.2 10.4 0.00 0.01 0.00 58 1017.7
20260502161527 44 255 4.3 8.7 0.00 0.01 0.00 57 1017.6
20260502151521 43 290 2.6 6.1 0.00 0.02 0.00 61 1017.6
20260502123021 39 302 2.6 8.7 0.00 0.03 0.00 68 1018.1
20260502121514 39 282 2.6 6.1 0.00 0.03 0.00 70 1018.0
20260502114511 38 265 2.6 5.2 0.00 0.03 0.00 71 1017.8
20260502113011 38 251 2.6 5.2 0.00 0.03 0.00 74 1017.9
20260502111516 37 267 1.7 4.3 0.00 0.03 0.00 78 1017.8
20260502110013 35 236 0.0 4.3 0.00 0.03 0.00 85 1017.7
20260502104507 33 200 0.9 1.7 0.00 0.03 0.00 84 1017.6
20260502103006 33 200 0.0 3.5 0.00 0.03 0.00 83 1017.6
20260502101502 35 202 0.9 2.6 0.00 0.03 0.00 79 1017.4
20260502090108 37 266 1.7 9.6 0.00 0.03 0.00 79 1016.9
20260502070044 38 299 4.3 11.3 0.00 0.03 0.00 75 1016.3
20260502064542 38 296 3.5 12.2 0.00 0.03 0.00 74 1016.4
20260502063042 39 307 4.3 9.6 0.00 0.03 0.00 73 1016.7
20260502061542 39 254 4.3 9.6 0.00 0.03 0.00 71 1016.8
20260502060037 39 312 4.3 9.6 0.00 0.03 0.00 70 1016.7
20260502054536 39 306 4.3 9.6 0.00 0.03 0.00 70 1016.8
20260502053035 40 313 5.2 10.4 0.00 0.03 0.00 68 1016.8
20260502051538 40 314 4.3 12.2 0.00 0.03 0.00 68 1016.7